This demonstration page uses our WeatherBlox Daily Observations layout. Learn more.

Left ArrowRight Arrow

38.20091, -84.87328

Hourly Observations for October 4, 2021

Temp ( °F °C ) Dew Point ( °F °C ) Humidity (%) Winds ( mph kmh ) Pressure ( in mb ) Visibility ( mi km ) Precip ( " mm )
12:06 am 00:06 Cloudy 68 20 67 19.4 96 96 N N/A 29.90 1013 10 16 N/A
12:23 am 00:23 Mostly Cloudy 68 20 66 18.9 93 93 SSW 5 7 29.90 1013 10 16 N/A
12:35 am 00:35 Cloudy 67 19.4 66 18.9 97 97 SW 5 7 29.89 1012 10 16 N/A
12:53 am 00:53 Partly Cloudy 66 18.9 65 18.3 96 96 SW 7 11 29.89 1012 10 16 N/A
1:53 am 01:53 Mostly Clear 66 18.9 65 18.3 96 96 SSW 7 11 29.89 1012 10 16 N/A
2:53 am 02:53 Mostly Cloudy 66 18.9 65 18.3 96 96 SW 8 13 29.89 1012 10 16 N/A
3:53 am 03:53 Cloudy 66 18.9 65 18.3 96 96 SSW 7 11 29.88 1012 10 16 N/A
4:53 am 04:53 Mostly Cloudy 65 18.3 64 17.8 97 97 WSW 6 9 29.89 1012 10 16 N/A
5:53 am 05:53 Mostly Cloudy 65 18.3 64 17.8 97 97 SW 5 7 29.90 1012 10 16 N/A
6:53 am 06:53 Cloudy 65 18.3 63 17.2 93 93 WSW 3 6 29.91 1013 10 16 N/A
7:12 am 07:12 Cloudy 64 17.8 63 17.2 96 96 N N/A 29.93 1013 9 14 N/A
7:21 am 07:21 Mostly Cloudy 64 17.8 63 17.2 96 96 WSW 3 6 29.93 1013 9 14 N/A
7:53 am 07:53 Cloudy with Mist and Fog 64 17.8 63 17.2 96 96 N N/A 29.93 1014 6 10 N/A
8:34 am 08:34 Cloudy with Mist and Fog 64 17.8 64 17.8 100 100 SW 6 9 29.95 1014 2 3 N/A
8:39 am 08:39 Cloudy with Mist and Fog 64 17.8 64 17.8 100 100 SW 5 7 29.95 1014 1 1 N/A
8:53 am 08:53 Cloudy with Fog 64 17.8 64 17.8 100 100 SW 6 9 29.95 1014 1 1 N/A
9:13 am 09:13 Cloudy with Mist and Fog 64 17.8 64 17.8 100 100 SW 5 7 29.96 1014 1 2 N/A
9:24 am 09:24 Cloudy with Mist and Fog 65 18.3 64 17.8 97 97 SSW 6 9 29.96 1014 2 3 N/A
9:45 am 09:45 Cloudy with Mist and Fog 65 18.3 64 17.8 97 97 SW 5 7 29.96 1014 4 6 N/A
9:53 am 09:53 Cloudy with Mist and Fog 65 18.3 64 17.8 97 97 SW 3 6 29.96 1015 3 5 N/A
10:35 am 10:35 Cloudy 66 18.9 65 18.3 96 96 SSW 8 13 29.96 1015 7 11 N/A
10:53 am 10:53 Cloudy with Mist and Fog 67 19.4 65 18.3 93 93 S 6 9 29.96 1015 6 10 N/A
11:29 am 11:29 Cloudy 70 21.1 66 18.9 87 87 S 5 7 29.97 1015 9 14 N/A
11:53 am 11:53 Cloudy 69 20.6 65 18.3 87 87 SW 8 13 29.97 1015 10 16 N/A
12:12 pm 12:12 Cloudy 69 20.6 65 18.3 87 87 SSW 7 11 29.97 1015 10 16 N/A
12:21 pm 12:21 Cloudy 69 20.6 65 18.3 87 87 SSW 8 13 29.97 1015 10 16 N/A
12:32 pm 12:32 Cloudy 71 21.7 65 18.3 81 81 SSW 9 15 29.97 1015 10 16 N/A
12:53 pm 12:53 Cloudy 72 22.2 66 18.9 82 82 SSW 7 11 29.97 1015 10 16 N/A
1:21 pm 13:21 Cloudy 72 22.2 65 18.3 79 79 SW 7 11 29.96 1015 10 16 N/A
1:53 pm 13:53 Cloudy 73 22.8 64 17.8 74 74 SW 8 13 29.96 1015 10 16 N/A
2:09 pm 14:09 Cloudy 74 23.3 64 17.8 71 71 SW 9 15 29.95 1014 10 16 N/A
2:53 pm 14:53 Cloudy 74 23.3 64 17.8 71 71 SW 8 13 29.95 1014 10 16 N/A
3:53 pm 15:53 Cloudy 74 23.3 64 17.8 71 71 SW 7 11 29.94 1014 10 16 N/A
4:53 pm 16:53 Cloudy 74 23.3 64 17.8 71 71 SW 5 7 29.95 1014 10 16 N/A
5:53 pm 17:53 Mostly Cloudy 73 22.8 64 17.8 74 74 N N/A 29.96 1015 10 16 N/A
6:53 pm 18:53 Cloudy 74 23.3 64 17.8 71 71 N N/A 29.96 1015 10 16 N/A
7:53 pm 19:53 Clear 67 19.4 65 18.3 93 93 N N/A 29.98 1015 10 16 N/A
8:53 pm 20:53 Clear 65 18.3 64 17.8 97 97 N N/A 29.99 1016 8 13 N/A
9:53 pm 21:53 Clear 63 17.2 62 16.7 97 97 N N/A 30.01 1016 7 11 N/A
10:08 pm 22:08 Mostly Clear with Mist and Fog 63 17.2 63 17.2 100 100 N N/A 30.01 1016 3 5 N/A
10:12 pm 22:12 Partly Cloudy with Mist and Fog 63 17.2 62 16.7 97 97 N N/A 30.02 1017 2 3 N/A
10:21 pm 22:21 Mostly Cloudy with Mist and Fog 63 17.2 62 16.7 97 97 N N/A 30.02 1017 3 5 N/A
10:33 pm 22:33 Mostly Cloudy with Mist and Fog 63 17.2 63 17.2 100 100 N N/A 30.02 1017 2 3 N/A
10:41 pm 22:41 Mostly Cloudy with Fog 62 16.7 62 16.7 100 100 N N/A 30.02 1017 1 1 N/A
10:48 pm 22:48 Mostly Cloudy with Mist and Fog 63 17 63 17 100 100 N N/A 30.02 1017 1 2 N/A
10:51 pm 22:51 Mostly Cloudy with Mist and Fog 63 17 63 17 100 100 N N/A 30.02 1017 4 6 N/A
10:53 pm 22:53 Mostly Cloudy with Mist and Fog 62 16.7 62 16.7 100 100 N N/A 30.02 1017 6 10 N/A
10:57 pm 22:57 Partly Cloudy with Mist and Fog 62 16.7 61 16.1 96 96 N N/A 30.02 1017 2 2 N/A
11:00 pm 23:00 Mostly Cloudy with Mist and Fog 61 16.1 60 15.6 97 97 N N/A 30.02 1017 1 1 N/A
11:12 pm 23:12 Mostly Cloudy with Mist and Fog 62 16.7 61 16.1 96 96 N N/A 30.02 1017 1 2 N/A
11:14 pm 23:14 Mostly Cloudy with Mist and Fog 62 16.7 61 16.1 96 96 N N/A 30.02 1017 3 5 N/A
11:18 pm 23:18 Mostly Cloudy with Mist and Fog 62 16.7 61 16.1 96 96 N N/A 30.02 1017 2 2 N/A
11:20 pm 23:20 Mostly Cloudy with Mist and Fog 61 16.1 61 16.1 100 100 N N/A 30.02 1017 1 1 N/A
11:38 pm 23:38 Mostly Clear with Mist and Fog 61 16.1 60 15.6 97 97 N N/A 30.03 1017 1 2 N/A
11:42 pm 23:42 Mostly Clear with Mist and Fog 61 16.1 60 15.6 97 97 N N/A 30.03 1017 4 6 N/A
11:53 pm 23:53 Clear 61 16.1 60 15.6 97 97 N N/A 30.02 1017 7 11 N/A

Powered by AerisWeather